Home   Weather   Medellin   Past weeks

Flag for Colombia Past Weather in Medellin, Colombia — Yesterday and Last 2 Weeks

Now
72 °F

Scattered clouds.


Feels Like: 77 °F
Forecast: 59 / 83 °F
Wind: 12 mph from Southeast

Location: Rionegro / J. M. Cordova

Current Time: Jul 24, 2017 at 12:06:31 pm

Latest Report: Jul 24, 2017 at 11:00 am


Visibility: N/A

Pressure: 30.33 "Hg (25.56 "Hg at 1479m altitude)

Humidity: 50%

Dew Point: 52 °F

Location of MedellinLocation

Past Weather in Medellin — Graph

°F

Medellin Temperature Yesterday

Maximum temperature yesterday: 73 °F (at 3:00 pm)
Minimum temperature yesterday: 57 °F (at 3:00 am)
Average temperature yesterday: 64 °F

High & Low Weather Summary for the Past Weeks

 TemperatureHumidityPressure
High75 °F (Jul 13, 1:00 pm)100% (Jul 10, 3:00 am)30.38 "Hg (Jul 10, 3:00 am)
Low50 °F (Jul 13, 6:00 am)38% (Jul 13, 3:00 pm)30.20 "Hg (Jul 18, 4:00 pm)
Average63 °F78%30.30 "Hg
* Reported Jul 9 11:00 am — Jul 24 11:00 am, Medellin. Weather by CustomWeather, © 2017

Note: Actual official high and low records may vary slightly from our data, if they occured in-between our weather recording intervals... More about our weather records

Advertising

Medellin Weather History for the Previous 24 Hours

Scroll right to see more
 ConditionsComfort  
Time TempWeatherWind HumidityBarometerVisibility
11:00 am
Mon, Jul 24
72 °FScattered clouds.12 mph50%30.33 "HgN/A
10:00 am68 °FScattered clouds.9 mph53%30.34 "HgN/A
9:00 am64 °FScattered clouds.3 mph73%30.33 "HgN/A
8:00 am63 °FPartly sunny.3 mph77%30.33 "HgN/A
7:00 am59 °FPartly sunny.2 mph88%30.31 "HgN/A
6:00 am55 °FFog.3 mph94%30.29 "HgN/A
5:30 am55 °FPassing clouds.3 mph94%30.27 "Hg5 mi
5:00 am57 °FPassing clouds.3 mph94%30.27 "HgN/A
4:00 am57 °FPassing clouds.2 mph94%30.27 "HgN/A
3:00 am54 °FPassing clouds.3 mph100%30.28 "HgN/A
2:00 am55 °FPartly cloudy.No wind94%30.29 "HgN/A
1:00 am57 °FPassing clouds.5 mph94%30.31 "HgN/A
12:00 am59 °FPartly cloudy.No wind88%30.33 "HgN/A
11:00 pm
Sun, Jul 23
59 °FPartly cloudy.No wind94%30.34 "HgN/A
10:00 pm59 °FPassing clouds.3 mph94%30.34 "HgN/A
9:00 pm61 °FPartly cloudy.3 mph83%30.32 "HgN/A
8:00 pm63 °FPassing clouds.3 mph77%30.28 "HgN/A
7:00 pm66 °FPassing clouds.5 mph64%30.27 "HgN/A
5:00 pm72 °FPartly sunny.9 mph50%30.23 "HgN/A
4:00 pm73 °FScattered clouds.9 mph47%30.23 "HgN/A
3:00 pm73 °FScattered clouds.9 mph50%30.24 "HgN/A
2:00 pm72 °FScattered clouds.9 mph47%30.27 "HgN/A
1:00 pm72 °FScattered clouds.9 mph50%30.29 "HgN/A
12:00 pm72 °FScattered clouds.7 mph50%30.31 "HgN/A
Weather by CustomWeather, © 2017

See weather overviewHow to use our weather pages